Year,Month,Day,Hour,Minute,Value (Times are PST for temperature in C)
2014,10,19,08,51,14.40
2014,10,19,08,52,14.50
2014,10,19,08,53,14.50
2014,10,19,08,54,14.60
2014,10,19,08,55,14.60
2014,10,19,08,56,14.70
2014,10,19,08,57,14.70
2014,10,19,08,58,14.70
2014,10,19,08,59,14.80
2014,10,19,09,00,14.80
2014,10,19,09,01,14.90
2014,10,19,09,02,14.90
2014,10,19,09,03,15.00
2014,10,19,09,04,15.00
2014,10,19,09,05,15.10
2014,10,19,09,06,15.10
2014,10,19,09,07,15.10
2014,10,19,09,08,15.10
2014,10,19,09,09,15.10
2014,10,19,09,10,15.20
2014,10,19,09,11,15.20
2014,10,19,09,12,15.30
2014,10,19,09,13,15.30
2014,10,19,09,14,15.30
2014,10,19,09,15,15.40
2014,10,19,09,16,15.40
2014,10,19,09,17,15.40
2014,10,19,09,18,15.40
2014,10,19,09,19,15.50
2014,10,19,09,20,15.50
2014,10,19,09,21,15.60
2014,10,19,09,22,15.60
2014,10,19,09,23,15.60
2014,10,19,09,24,15.70
2014,10,19,09,25,15.70
2014,10,19,09,26,15.80
2014,10,19,09,27,15.80
2014,10,19,09,28,15.80
2014,10,19,09,29,15.80
2014,10,19,09,30,15.80
2014,10,19,09,31,15.80
2014,10,19,09,32,15.80
2014,10,19,09,33,15.80
2014,10,19,09,34,15.80
2014,10,19,09,35,15.80
2014,10,19,09,36,15.80
2014,10,19,09,37,15.80
2014,10,19,09,38,15.70
2014,10,19,09,39,15.70
2014,10,19,09,40,15.70
2014,10,19,09,41,15.70
2014,10,19,09,42,15.70
2014,10,19,09,43,15.70
2014,10,19,09,44,15.70
2014,10,19,09,45,15.70
2014,10,19,09,46,15.70
2014,10,19,09,47,15.70
2014,10,19,09,48,15.70
2014,10,19,09,49,15.70
2014,10,19,09,50,15.70
2014,10,19,09,51,15.80
2014,10,19,09,52,15.80
2014,10,19,09,53,15.80
2014,10,19,09,54,15.70
2014,10,19,09,55,15.70
2014,10,19,09,56,15.70
2014,10,19,09,57,15.70
2014,10,19,09,58,15.70
2014,10,19,09,59,15.70
2014,10,19,10,00,15.70
2014,10,19,10,01,15.70
2014,10,19,10,02,15.70
2014,10,19,10,03,15.60
2014,10,19,10,04,15.70
2014,10,19,10,05,15.70
2014,10,19,10,06,15.70
2014,10,19,10,07,15.70
2014,10,19,10,08,15.70
2014,10,19,10,09,15.80
2014,10,19,10,10,15.80
2014,10,19,10,11,15.80
2014,10,19,10,12,15.90
2014,10,19,10,13,15.90
2014,10,19,10,14,15.90
2014,10,19,10,15,16.00
2014,10,19,10,16,16.00
2014,10,19,10,17,16.10
2014,10,19,10,18,16.10
2014,10,19,10,19,16.20
2014,10,19,10,20,16.20
2014,10,19,10,21,16.20
2014,10,19,10,22,16.20
2014,10,19,10,23,16.30
2014,10,19,10,24,16.30
2014,10,19,10,25,16.30
2014,10,19,10,26,16.40
2014,10,19,10,27,16.40
2014,10,19,10,28,16.50
2014,10,19,10,29,16.50
2014,10,19,10,30,16.60
2014,10,19,10,31,16.60
2014,10,19,10,32,16.60
2014,10,19,10,33,16.60
2014,10,19,10,34,16.70
2014,10,19,10,35,16.70
2014,10,19,10,36,16.70
2014,10,19,10,37,16.70
2014,10,19,10,38,16.70
2014,10,19,10,39,16.70
2014,10,19,10,40,16.70
2014,10,19,10,41,16.70
2014,10,19,10,42,16.70
2014,10,19,10,43,16.70
2014,10,19,10,44,16.70
2014,10,19,10,45,16.80
2014,10,19,10,46,16.80
2014,10,19,10,47,16.80
2014,10,19,10,48,16.80
2014,10,19,10,49,16.90
2014,10,19,10,50,16.90
2014,10,19,10,51,17.00
2014,10,19,10,52,17.00
2014,10,19,10,53,17.10
2014,10,19,10,54,17.10
2014,10,19,10,55,17.20
2014,10,19,10,56,17.30
2014,10,19,10,57,17.30
2014,10,19,10,58,17.40
2014,10,19,10,59,17.40
2014,10,19,11,00,17.50
2014,10,19,11,01,17.60
2014,10,19,11,02,17.60
2014,10,19,11,03,17.60
2014,10,19,11,04,17.60
2014,10,19,11,05,17.60
2014,10,19,11,06,17.60
2014,10,19,11,07,17.60
2014,10,19,11,08,17.60
2014,10,19,11,09,17.60
2014,10,19,11,10,17.60
2014,10,19,11,11,17.60
2014,10,19,11,12,17.60
2014,10,19,11,13,17.70
2014,10,19,11,14,17.70
2014,10,19,11,15,17.70
2014,10,19,11,16,17.70
2014,10,19,11,17,17.70
2014,10,19,11,18,17.70
2014,10,19,11,19,17.80
2014,10,19,11,20,17.80
2014,10,19,11,21,17.80
2014,10,19,11,22,17.90
2014,10,19,11,23,17.90
2014,10,19,11,24,17.90
2014,10,19,11,25,18.00
2014,10,19,11,26,18.00
2014,10,19,11,27,18.10
2014,10,19,11,28,18.10
2014,10,19,11,29,18.20
2014,10,19,11,30,18.20
2014,10,19,11,31,18.20
2014,10,19,11,32,18.30
2014,10,19,11,33,18.30
2014,10,19,11,34,18.30
2014,10,19,11,35,18.40
2014,10,19,11,36,18.40
2014,10,19,11,37,18.50
2014,10,19,11,38,18.50
2014,10,19,11,39,18.50
2014,10,19,11,40,18.60
2014,10,19,11,41,18.60
2014,10,19,11,42,18.60
2014,10,19,11,43,18.60
2014,10,19,11,44,18.60
2014,10,19,11,45,18.70
2014,10,19,11,46,18.70
2014,10,19,11,47,18.70
2014,10,19,11,48,18.70
2014,10,19,11,49,18.80
2014,10,19,11,50,18.80
2014,10,19,11,51,18.80
2014,10,19,11,52,18.90
2014,10,19,11,53,18.90
2014,10,19,11,54,18.90
2014,10,19,11,55,19.00
2014,10,19,11,56,19.00
2014,10,19,11,57,19.10
2014,10,19,11,58,19.10
2014,10,19,11,59,19.20
2014,10,19,12,00,19.20
2014,10,19,12,01,19.20
2014,10,19,12,02,19.30
2014,10,19,12,03,19.30
2014,10,19,12,04,19.30
2014,10,19,12,05,19.30
2014,10,19,12,06,19.40
2014,10,19,12,07,19.40
2014,10,19,12,08,19.40
2014,10,19,12,09,19.40
2014,10,19,12,10,19.40
2014,10,19,12,11,19.50
2014,10,19,12,12,19.50
2014,10,19,12,13,19.40
2014,10,19,12,14,19.40
2014,10,19,12,15,19.40
2014,10,19,12,16,19.40
2014,10,19,12,17,19.40
2014,10,19,12,18,19.40
2014,10,19,12,19,19.40
2014,10,19,12,20,19.40
2014,10,19,12,21,19.40
2014,10,19,12,22,19.30
2014,10,19,12,23,19.30
2014,10,19,12,24,19.30
2014,10,19,12,25,19.20
2014,10,19,12,26,19.20
2014,10,19,12,27,19.20
2014,10,19,12,28,19.20
2014,10,19,12,29,19.10
2014,10,19,12,30,19.10
2014,10,19,12,31,19.10
2014,10,19,12,32,19.10
2014,10,19,12,33,19.10
2014,10,19,12,34,19.10
2014,10,19,12,35,19.20
2014,10,19,12,36,19.20
2014,10,19,12,37,19.20
2014,10,19,12,38,19.20
2014,10,19,12,39,19.20
2014,10,19,12,40,19.20
2014,10,19,12,41,19.20
2014,10,19,12,42,19.20
2014,10,19,12,43,19.20
2014,10,19,12,44,19.30
2014,10,19,12,45,19.30
2014,10,19,12,46,19.40
2014,10,19,12,47,19.40
2014,10,19,12,48,19.50
2014,10,19,12,49,19.50
2014,10,19,12,50,19.60
2014,10,19,12,51,19.70
2014,10,19,12,52,19.70
2014,10,19,12,53,19.70
2014,10,19,12,54,19.70
2014,10,19,12,55,19.80
2014,10,19,12,56,19.80
2014,10,19,12,57,19.90
2014,10,19,12,58,19.90
2014,10,19,12,59,19.90
2014,10,19,13,00,19.90
2014,10,19,13,01,19.90
2014,10,19,13,02,19.90
2014,10,19,13,03,20.00
2014,10,19,13,04,20.00
2014,10,19,13,05,20.10
2014,10,19,13,06,20.10
2014,10,19,13,07,20.10
2014,10,19,13,08,20.10
2014,10,19,13,09,20.00
2014,10,19,13,10,20.00
2014,10,19,13,11,20.10
2014,10,19,13,12,20.10
2014,10,19,13,13,20.10
2014,10,19,13,14,20.10
2014,10,19,13,15,20.10
2014,10,19,13,16,20.10
2014,10,19,13,17,20.20
2014,10,19,13,18,20.20
2014,10,19,13,19,20.20
2014,10,19,13,20,20.30
2014,10,19,13,21,20.30
2014,10,19,13,22,20.30
2014,10,19,13,23,20.30
2014,10,19,13,24,20.20
2014,10,19,13,25,20.20
2014,10,19,13,26,20.20
2014,10,19,13,27,20.20
2014,10,19,13,28,20.20
2014,10,19,13,29,20.20
2014,10,19,13,30,20.20
2014,10,19,13,31,20.20
2014,10,19,13,32,20.20
2014,10,19,13,33,20.20
2014,10,19,13,34,20.10
2014,10,19,13,35,20.10
2014,10,19,13,36,20.00
2014,10,19,13,37,19.90
2014,10,19,13,38,19.80
2014,10,19,13,39,19.80
2014,10,19,13,40,19.70
2014,10,19,13,41,19.60
2014,10,19,13,42,19.50
2014,10,19,13,43,19.40
2014,10,19,13,44,19.40
2014,10,19,13,45,19.30
2014,10,19,13,46,19.30
2014,10,19,13,47,19.30
2014,10,19,13,48,19.30
2014,10,19,13,49,19.40
2014,10,19,13,50,19.40
2014,10,19,13,51,19.40
2014,10,19,13,52,19.40
2014,10,19,13,53,19.40
2014,10,19,13,54,19.40
2014,10,19,13,55,19.40
2014,10,19,13,56,19.40
2014,10,19,13,57,19.40
2014,10,19,13,58,19.40
2014,10,19,13,59,19.40
2014,10,19,14,00,19.30
2014,10,19,14,01,19.30
2014,10,19,14,02,19.40
2014,10,19,14,03,19.40
2014,10,19,14,04,19.40
2014,10,19,14,05,19.50
2014,10,19,14,06,19.50
2014,10,19,14,07,19.60
2014,10,19,14,08,19.60
2014,10,19,14,09,19.60
2014,10,19,14,10,19.70
2014,10,19,14,11,19.80
2014,10,19,14,12,19.80
2014,10,19,14,13,19.80
2014,10,19,14,14,19.90
2014,10,19,14,15,19.90
2014,10,19,14,16,20.00
2014,10,19,14,17,20.00
2014,10,19,14,18,20.00
2014,10,19,14,19,20.10
2014,10,19,14,20,20.10
2014,10,19,14,21,20.20
2014,10,19,14,22,20.20
2014,10,19,14,23,20.20
2014,10,19,14,24,20.30
2014,10,19,14,25,20.30
2014,10,19,14,26,20.40
2014,10,19,14,27,20.40
2014,10,19,14,28,20.40
2014,10,19,14,29,20.40
2014,10,19,14,30,20.50
2014,10,19,14,31,20.50
2014,10,19,14,32,20.50
2014,10,19,14,33,20.60
2014,10,19,14,34,20.60
2014,10,19,14,35,20.60
2014,10,19,14,36,20.60
2014,10,19,14,37,20.60
2014,10,19,14,38,20.60
2014,10,19,14,39,20.70
2014,10,19,14,40,20.70
2014,10,19,14,41,20.80
2014,10,19,14,42,20.80
2014,10,19,14,43,20.90
2014,10,19,14,44,20.90
2014,10,19,14,45,20.90
2014,10,19,14,46,20.90
2014,10,19,14,47,21.00
2014,10,19,14,48,21.00
2014,10,19,14,49,21.00
2014,10,19,14,50,21.10
2014,10,19,14,51,21.10
2014,10,19,14,52,21.20
2014,10,19,14,53,21.20
2014,10,19,14,54,21.30
2014,10,19,14,55,21.30
2014,10,19,14,56,21.40
2014,10,19,14,57,21.40
2014,10,19,14,58,21.50
2014,10,19,14,59,21.50
2014,10,19,15,00,21.50
2014,10,19,15,01,21.60
2014,10,19,15,02,21.60
2014,10,19,15,03,21.60
2014,10,19,15,04,21.60
2014,10,19,15,05,21.60
2014,10,19,15,06,21.60
2014,10,19,15,07,21.60
2014,10,19,15,08,21.60
2014,10,19,15,09,21.60
2014,10,19,15,10,21.60
2014,10,19,15,11,21.60
2014,10,19,15,12,21.50
2014,10,19,15,13,21.50
2014,10,19,15,14,21.50
2014,10,19,15,15,21.40
2014,10,19,15,16,21.40
2014,10,19,15,17,21.40
2014,10,19,15,18,21.40
2014,10,19,15,19,21.40
2014,10,19,15,20,21.40
2014,10,19,15,21,21.40
2014,10,19,15,22,21.40
2014,10,19,15,23,21.40
2014,10,19,15,24,21.30
2014,10,19,15,25,21.30
2014,10,19,15,26,21.30
2014,10,19,15,27,21.30
2014,10,19,15,28,21.30
2014,10,19,15,29,21.20
2014,10,19,15,30,21.20
2014,10,19,15,31,21.10
2014,10,19,15,32,21.10
2014,10,19,15,33,21.00
2014,10,19,15,34,21.00
2014,10,19,15,35,20.90
2014,10,19,15,36,20.90
2014,10,19,15,37,20.90
2014,10,19,15,38,20.90
2014,10,19,15,39,20.90
2014,10,19,15,40,20.90
2014,10,19,15,41,20.80
2014,10,19,15,42,20.80
2014,10,19,15,43,20.80
2014,10,19,15,44,20.70
2014,10,19,15,45,20.70
2014,10,19,15,46,20.70
2014,10,19,15,47,20.70
2014,10,19,15,48,20.70
2014,10,19,15,49,20.60
2014,10,19,15,50,20.60
2014,10,19,15,51,20.50
2014,10,19,15,52,20.40
2014,10,19,15,53,20.40
2014,10,19,15,54,20.30
2014,10,19,15,55,20.30
2014,10,19,15,56,20.30
2014,10,19,15,57,20.30
2014,10,19,15,58,20.30
2014,10,19,15,59,20.20
2014,10,19,16,00,20.20
2014,10,19,16,01,20.20
2014,10,19,16,02,20.20
2014,10,19,16,03,20.20
2014,10,19,16,04,20.20
2014,10,19,16,05,20.20
2014,10,19,16,06,20.20
2014,10,19,16,07,20.20
2014,10,19,16,08,20.20
2014,10,19,16,09,20.10
2014,10,19,16,10,20.20
2014,10,19,16,11,20.20
2014,10,19,16,12,20.20
2014,10,19,16,13,20.20
2014,10,19,16,14,20.20
2014,10,19,16,15,20.10
2014,10,19,16,16,20.10
2014,10,19,16,17,20.10
2014,10,19,16,18,20.10
2014,10,19,16,19,20.10
2014,10,19,16,20,20.10
2014,10,19,16,21,20.10
2014,10,19,16,22,20.10
2014,10,19,16,23,20.10
2014,10,19,16,24,20.10
2014,10,19,16,25,20.10
2014,10,19,16,26,20.10
2014,10,19,16,27,20.10
2014,10,19,16,28,20.10
2014,10,19,16,29,20.10
2014,10,19,16,30,20.10
2014,10,19,16,31,20.10
2014,10,19,16,32,20.10
2014,10,19,16,33,20.10
2014,10,19,16,34,20.10
2014,10,19,16,35,20.10
2014,10,19,16,36,20.10
2014,10,19,16,37,20.10
2014,10,19,16,38,20.10
2014,10,19,16,39,20.10
2014,10,19,16,40,20.00
2014,10,19,16,41,20.00
2014,10,19,16,42,19.90
2014,10,19,16,43,19.90
2014,10,19,16,44,19.80
2014,10,19,16,45,19.70
2014,10,19,16,46,19.50
2014,10,19,16,47,19.30
2014,10,19,16,48,19.10
2014,10,19,16,49,18.90
2014,10,19,16,50,18.80
2014,10,19,16,51,18.60
2014,10,19,16,52,18.40
2014,10,19,16,53,18.30
2014,10,19,16,54,18.20
2014,10,19,16,55,18.00
2014,10,19,16,56,17.90
2014,10,19,16,57,17.90
2014,10,19,16,58,17.70
2014,10,19,16,59,17.60
2014,10,19,17,00,17.60
2014,10,19,17,01,17.50
2014,10,19,17,02,17.40
2014,10,19,17,03,17.40
2014,10,19,17,04,17.30
2014,10,19,17,05,17.30
2014,10,19,17,06,17.30
2014,10,19,17,07,17.30
2014,10,19,17,08,17.30
2014,10,19,17,09,17.30
2014,10,19,17,10,17.30
2014,10,19,17,11,17.30
2014,10,19,17,12,17.30
2014,10,19,17,13,17.30
2014,10,19,17,14,17.30
2014,10,19,17,15,17.30
2014,10,19,17,16,17.30
2014,10,19,17,17,17.30
2014,10,19,17,18,17.30
2014,10,19,17,19,17.30
2014,10,19,17,20,17.30
2014,10,19,17,21,17.30
2014,10,19,17,22,17.30
2014,10,19,17,23,17.30
2014,10,19,17,24,17.40
2014,10,19,17,25,17.40
2014,10,19,17,26,17.40
2014,10,19,17,27,17.40
2014,10,19,17,28,17.40
2014,10,19,17,29,17.40
2014,10,19,17,30,17.40
2014,10,19,17,31,17.40
2014,10,19,17,32,17.40
2014,10,19,17,33,17.50
2014,10,19,17,34,17.50
2014,10,19,17,35,17.50
2014,10,19,17,36,17.50
2014,10,19,17,37,17.50
2014,10,19,17,38,17.50
2014,10,19,17,39,17.50
2014,10,19,17,40,17.50
2014,10,19,17,41,17.50
2014,10,19,17,42,17.50
2014,10,19,17,43,17.50
2014,10,19,17,44,17.50
2014,10,19,17,45,17.50
2014,10,19,17,46,17.50
2014,10,19,17,47,17.50
2014,10,19,17,48,17.50
